#timestamp,LO_Frequency,Hit 
1501088415.8,286046989.2,N
1501088435.6,286046991.6,N
1501088455.4,286046990.7,Y
1501088475.1,286046998.7,N
1501088476.0,286046998.7,N
1501088495.8,286047001.8,N
1501088515.7,286047003.3,N
1501088535.5,286047005.4,N
1501088555.3,286047007.4,N
1501088575.2,286047008.6,N
1501088595.0,286047007.7,N
1501088595.9,286047007.7,N
1501088615.7,286047008.4,N
1501088635.6,286047007.5,N
1501088655.4,286047004.9,N
1501088675.3,286047006.8,N
1501088695.1,286047006.6,N
1501088696.0,286047006.6,N
1501088715.8,286047008.7,Y
1501088735.7,286047001.9,N
1501088755.5,286047001.1,N
1501088775.4,286046998.4,N
1501088795.2,286046998.4,N
1501088815.0,286046999.0,N
1501088815.9,286046999.0,N
1501088835.8,286046997.9,N
1501088855.6,286046994.9,N
1501088875.4,286046997.1,N
1501088895.3,286046995.5,N
1501088915.1,286046996.2,N
1501088935.9,286046995.7,N
1501088955.7,286046997.5,N
1501088975.5,286046993.5,N
1501088995.4,286046994.4,N
1501089015.2,286046990.6,Y
1501089035.0,286046992.5,N
1501089035.9,286046992.5,N
1501089055.8,286046994.8,N
1501089075.6,286046990.5,Y
1501089095.5,286046995.4,N
1501089115.3,286046997.4,N
1501089135.1,286046997.1,N
1501089155.9,286046995.6,N
1501089175.7,286046995.4,N
1501089195.6,286046996.0,N
1501089215.4,286046996.2,N
1501089235.2,286046994.6,N
1501089255.1,286046993.9,N
1501089256.0,286046993.9,N
1501089275.8,286046992.4,Y
1501089295.7,286046996.7,N
1501089315.5,286046997.1,N
1501089335.3,286046999.2,N
1501089355.2,286047000.0,N
1501089375.0,286047003.2,N
1501089375.9,286047003.2,N
1501089395.7,286047006.4,N
1501089415.6,286047009.1,N
1501089435.4,286047006.4,N
1501089455.3,286047009.1,N
1501089475.1,286047005.8,N
1501089476.0,286047005.8,N
1501089495.8,286047004.1,N
1501089515.7,286047002.3,N
1501089535.5,286046999.3,N
1501089555.4,286046998.5,N
1501089575.2,286047002.4,N
1501089595.0,286047003.1,N
1501089595.9,286047003.1,N
1501089615.8,286047003.7,N
1501089635.6,286047004.4,N
1501089655.4,286047006.0,N
1501089675.3,286047005.7,N
1501089695.1,286047005.9,N
1501089715.9,286047003.4,N
1501089735.7,286047003.5,N
1501089755.5,286047001.7,N
1501089775.4,286047002.5,N
1501089795.2,286047000.1,N
1501089815.0,286047001.2,N
1501089815.9,286047001.2,N
1501089835.8,286046998.4,N
1501089855.6,286046999.7,N
1501089875.5,286047000.6,N
1501089895.3,286046998.8,N
1501089915.1,286046999.4,N
1501089935.9,286046997.8,N
1501089955.7,286046995.6,N
1501089975.5,286046999.1,N
1501089995.4,286046999.3,N
1501090015.2,286046998.7,N
1501090035.1,286046996.9,N
1501090036.0,286046996.9,N
1501090055.8,286047002.3,N
1501090075.6,286046999.7,N
1501090095.5,286046996.5,N
1501090115.3,286046998.8,N
1501090135.1,286046996.6,N
1501090155.9,286046995.9,N
1501090175.7,286046995.7,N
1501090195.6,286046993.9,Y
1501090215.4,286046993.4,Y
1501090235.2,286046998.0,N
1501090255.1,286046997.3,N
1501090256.0,286046997.3,N
1501090275.8,286046999.3,N
1501090295.7,286046998.9,N
1501090315.5,286047000.5,N
1501090335.3,286047004.0,N
1501090355.2,286047001.3,N
1501090375.0,286047000.2,N
1501090375.9,286047000.2,N
1501090395.7,286047002.5,N
1501090415.6,286046999.7,N
1501090435.4,286046999.9,N
1501090455.3,286047001.2,N
1501090475.1,286046999.0,N
1501090476.0,286046999.0,N
1501090495.8,286047001.2,N
1501090515.7,286047001.2,N
1501090535.5,286046998.6,N
1501090555.3,286047002.3,N
1501090575.2,286047000.3,N
1501090595.0,286047001.0,N
1501090595.9,286047001.0,N
1501090615.8,286047000.5,N
1501090635.6,286047000.5,N
1501090655.4,286046998.3,N
1501090675.3,286046999.7,N
1501090695.1,286047002.8,N
1501090715.9,286047001.5,N
1501090735.7,286047004.3,Y
1501090755.5,286047002.6,N
1501090775.4,286047000.1,N
1501090795.2,286047001.2,N
1501090815.0,286046999.6,N
1501090815.9,286046999.6,N
1501090835.8,286046998.4,N
1501090855.6,286047000.0,N
1501090875.5,286047001.0,N
1501090895.3,286046999.8,N
1501090915.1,286047002.5,N
1501090935.9,286047003.5,N
1501090955.7,286047002.4,N
1501090975.5,286046998.5,N
1501090995.4,286046998.4,N
1501091015.2,286046996.5,N
1501091035.1,286046994.9,N
1501091036.0,286046994.9,N
1501091055.8,286046999.1,N
1501091075.6,286046999.4,N
1501091095.5,286046999.3,N
1501091115.3,286046999.6,N
1501091135.1,286046998.6,N
1501091155.9,286047000.8,N
1501091175.7,286047002.4,N
1501091195.6,286047000.8,N
1501091215.4,286046998.1,N
1501091235.2,286046999.9,N
1501091255.1,286047001.5,N
1501091256.0,286047001.5,N
1501091275.8,286047003.2,N
1501091295.7,286047003.8,N
1501091315.5,286047004.2,N
1501091335.3,286047004.3,N
1501091355.2,286047002.5,N
1501091375.9,286047002.6,N
1501091395.7,286047001.7,N
1501091415.6,286047004.1,N
1501091435.4,286047002.2,N
1501091455.3,286046999.7,N
1501091475.1,286047003.5,N
1501091476.0,286047003.5,N
1501091495.8,286047004.6,N
1501091515.7,286047007.2,Y
1501091535.5,286047006.7,Y
1501091555.3,286047003.5,N
1501091575.2,286047003.1,N
1501091595.5,286047005.1,N
1501091615.4,286047005.8,N
1501091635.2,286047004.1,N
1501091655.0,286047003.6,N
1501091655.9,286047003.6,N
1501091675.8,286047002.9,N
1501091695.6,286047006.4,Y
1501091715.5,286047009.0,Y
1501091735.3,286047003.6,N
1501091755.1,286047000.5,N
1501091775.9,286046999.2,N
1501091795.7,286046999.3,N
1501091815.5,286046996.5,N
1501091835.4,286046995.3,N
1501091855.2,286046993.4,N
1501091875.1,286046993.7,N
1501091876.0,286046993.7,N
1501091895.8,286046992.8,N
1501091915.6,286046990.6,N
1501091935.5,286046990.9,N
1501091955.3,286046992.2,N
1501091975.1,286046990.4,N
1501091995.9,286046992.6,N
